Wetterdaten: Montag, 13.05.2013
Datum Zeit Temperatur Luftfeuchte Luftdruck Regen Wind Richtung Richtung Taupunkt Windchill Windben
13.05.2013 00:00 3,5 C 96 % 1021,6 hPa 0,0 l/m 0,3 km/h (0 Bft) NO 45 2,9 C 3,1 C 2,4 km/h (1 Bft)
13.05.2013 00:05 3,4 C 96 % 1021,7 hPa 0,0 l/m 0,6 km/h (0 Bft) O-NO 67 2,8 C 3,1 C 2,6 km/h (1 Bft)
13.05.2013 00:10 3,2 C 96 % 1021,7 hPa 0,0 l/m 1,1 km/h (1 Bft) NO 45 2,6 C 3,1 C 0,0 km/h (0 Bft)
13.05.2013 00:15 3,1 C 96 % 1021,7 hPa 0,0 l/m 0,6 km/h (0 Bft) O 90 2,5 C 2,9 C 0,0 km/h (0 Bft)
13.05.2013 00:20 3,0 C 96 % 1021,7 hPa 0,0 l/m 0,0 km/h (0 Bft) O-NO 67 2,4 C 2,6 C 0,0 km/h (0 Bft)
13.05.2013 00:25 3,0 C 96 % 1021,6 hPa 0,0 l/m 0,2 km/h (0 Bft) O-NO 67 2,4 C 2,5 C 0,0 km/h (0 Bft)
13.05.2013 00:30 3,0 C 96 % 1021,6 hPa 0,0 l/m 0,3 km/h (0 Bft) O-NO 67 2,4 C 2,5 C 1,9 km/h (1 Bft)
13.05.2013 00:35 3,0 C 96 % 1021,6 hPa 0,0 l/m 0,5 km/h (0 Bft) NO 45 2,4 C 2,5 C 1,8 km/h (1 Bft)
13.05.2013 00:40 2,7 C 97 % 1021,6 hPa 0,0 l/m 0,5 km/h (0 Bft) O-NO 67 2,3 C 2,3 C 3,7 km/h (1 Bft)
13.05.2013 00:45 2,6 C 97 % 1021,6 hPa 0,0 l/m 0,8 km/h (0 Bft) O 90 2,2 C 2,3 C 1,8 km/h (1 Bft)
13.05.2013 00:50 2,6 C 97 % 1021,6 hPa 0,0 l/m 1,3 km/h (1 Bft) O-NO 67 2,2 C 2,2 C 0,0 km/h (0 Bft)
13.05.2013 00:55 2,6 C 97 % 1021,6 hPa 0,0 l/m 0,8 km/h (0 Bft) O-NO 67 2,2 C 2,1 C 0,0 km/h (0 Bft)
13.05.2013 01:00 2,4 C 97 % 1021,6 hPa 0,0 l/m 0,2 km/h (0 Bft) O 90 2,0 C 2,0 C 0,0 km/h (0 Bft)
13.05.2013 01:05 2,3 C 97 % 1021,8 hPa 0,0 l/m 0,2 km/h (0 Bft) O-NO 67 1,9 C 1,9 C 0,0 km/h (0 Bft)
13.05.2013 01:10 2,4 C 97 % 1021,8 hPa 0,0 l/m 0,2 km/h (0 Bft) O-SO 112 2,0 C 1,9 C 0,0 km/h (0 Bft)
13.05.2013 01:15 2,6 C 97 % 1021,8 hPa 0,0 l/m 0,6 km/h (0 Bft) O-SO 112 2,2 C 2,0 C 2,3 km/h (1 Bft)
13.05.2013 01:20 2,8 C 97 % 1021,8 hPa 0,0 l/m 1,1 km/h (1 Bft) W-SW 247 2,4 C 2,3 C 0,0 km/h (0 Bft)
13.05.2013 01:25 2,7 C 97 % 1021,6 hPa 0,0 l/m 0,8 km/h (0 Bft) N 360 2,3 C 2,3 C 0,0 km/h (0 Bft)
13.05.2013 01:30 2,7 C 97 % 1021,6 hPa 0,0 l/m 0,2 km/h (0 Bft) O-NO 67 2,3 C 2,3 C 0,0 km/h (0 Bft)
13.05.2013 01:35 2,7 C 97 % 1021,6 hPa 0,0 l/m 0,3 km/h (0 Bft) NO 45 2,3 C 2,3 C 0,0 km/h (0 Bft)
13.05.2013 01:40 2,5 C 97 % 1021,6 hPa 0,0 l/m 0,0 km/h (0 Bft) S-SO 157 2,1 C 2,1 C 0,0 km/h (0 Bft)
13.05.2013 01:45 2,5 C 97 % 1021,7 hPa 0,0 l/m 0,8 km/h (0 Bft) NO 45 2,1 C 2,0 C 4,0 km/h (1 Bft)
13.05.2013 01:50 2,2 C 97 % 1021,7 hPa 0,0 l/m 1,1 km/h (1 Bft) NO 45 1,8 C 1,8 C 0,0 km/h (0 Bft)
13.05.2013 01:55 2,1 C 97 % 1021,7 hPa 0,0 l/m 0,6 km/h (0 Bft) NO 45 1,7 C 1,7 C 0,0 km/h (0 Bft)
13.05.2013 02:00 2,1 C 97 % 1021,7 hPa 0,0 l/m 0,2 km/h (0 Bft) O-NO 67 1,7 C 1,5 C 0,0 km/h (0 Bft)
13.05.2013 02:05 2,2 C 97 % 1021,5 hPa 0,0 l/m 0,0 km/h (0 Bft) N 360 1,8 C 1,5 C 0,0 km/h (0 Bft)
13.05.2013 02:10 2,2 C 97 % 1021,5 hPa 0,0 l/m 0,0 km/h (0 Bft) N-NW 337 1,8 C 1,7 C 0,0 km/h (0 Bft)
13.05.2013 02:15 2,2 C 97 % 1021,5 hPa 0,0 l/m 0,0 km/h (0 Bft) O-NO 67 1,8 C 1,7 C 1,6 km/h (1 Bft)
13.05.2013 02:20 2,3 C 97 % 1021,5 hPa 0,0 l/m 0,0 km/h (0 Bft) NO 45 1,9 C 1,7 C 0,0 km/h (0 Bft)
13.05.2013 02:25 2,3 C 97 % 1021,4 hPa 0,0 l/m 0,2 km/h (0 Bft) NW 315 1,9 C 1,7 C 0,0 km/h (0 Bft)
13.05.2013 02:30 2,3 C 97 % 1021,4 hPa 0,0 l/m 0,2 km/h (0 Bft) NO 45 1,9 C 1,7 C 0,0 km/h (0 Bft)
13.05.2013 02:35 2,4 C 97 % 1021,4 hPa 0,0 l/m 0,2 km/h (0 Bft) NO 45 2,0 C 1,8 C 1,9 km/h (1 Bft)
13.05.2013 02:40 2,7 C 97 % 1021,4 hPa 0,0 l/m 0,2 km/h (0 Bft) N-NW 337 2,3 C 2,0 C 0,0 km/h (0 Bft)
13.05.2013 02:45 2,8 C 97 % 1021,3 hPa 0,0 l/m 0,2 km/h (0 Bft) O-NO 67 2,4 C 2,2 C 0,0 km/h (0 Bft)
13.05.2013 02:50 2,9 C 97 % 1021,3 hPa 0,0 l/m 0,0 km/h (0 Bft) NO 45 2,5 C 2,3 C 1,6 km/h (1 Bft)
13.05.2013 02:55 2,9 C 97 % 1021,3 hPa 0,0 l/m 0,2 km/h (0 Bft) NO 45 2,5 C 2,3 C 1,6 km/h (1 Bft)
13.05.2013 03:00 2,8 C 97 % 1021,3 hPa 0,0 l/m 0,3 km/h (0 Bft) NO 45 2,4 C 2,4 C 1,9 km/h (1 Bft)
13.05.2013 03:05 2,9 C 97 % 1021,2 hPa 0,0 l/m 0,5 km/h (0 Bft) NO 45 2,5 C 2,4 C 2,3 km/h (1 Bft)
13.05.2013 03:10 3,0 C 97 % 1021,2 hPa 0,0 l/m 0,3 km/h (0 Bft) N-NO 22 2,6 C 2,5 C 0,0 km/h (0 Bft)
13.05.2013 03:15 3,0 C 97 % 1021,2 hPa 0,0 l/m 0,5 km/h (0 Bft) NO 45 2,6 C 2,6 C 1,8 km/h (1 Bft)
13.05.2013 03:20 3,0 C 97 % 1021,2 hPa 0,0 l/m 0,6 km/h (0 Bft) SW 225 2,6 C 2,6 C 1,6 km/h (1 Bft)
13.05.2013 03:25 3,0 C 97 % 1021,1 hPa 0,0 l/m 0,3 km/h (0 Bft) NO 45 2,6 C 2,6 C 0,0 km/h (0 Bft)
13.05.2013 03:30 3,0 C 97 % 1021,1 hPa 0,0 l/m 0,2 km/h (0 Bft) NO 45 2,6 C 2,6 C 3,1 km/h (1 Bft)
13.05.2013 03:35 3,0 C 97 % 1021,1 hPa 0,0 l/m 0,3 km/h (0 Bft) O-NO 67 2,6 C 2,6 C 0,0 km/h (0 Bft)
13.05.2013 03:40 3,0 C 97 % 1021,1 hPa 0,0 l/m 0,5 km/h (0 Bft) O-NO 67 2,6 C 2,6 C 1,9 km/h (1 Bft)
13.05.2013 03:45 2,9 C 98 % 1021,1 hPa 0,0 l/m 0,3 km/h (0 Bft) O-NO 67 2,6 C 2,5 C 0,0 km/h (0 Bft)
13.05.2013 03:50 2,9 C 98 % 1021,1 hPa 0,0 l/m 1,3 km/h (1 Bft) O 90 2,6 C 2,5 C 1,9 km/h (1 Bft)
13.05.2013 03:55 2,9 C 98 % 1021,1 hPa 0,0 l/m 1,1 km/h (1 Bft) N-NO 22 2,6 C 2,4 C 0,0 km/h (0 Bft)
13.05.2013 04:00 2,8 C 98 % 1021,1 hPa 0,0 l/m 0,3 km/h (0 Bft) NO 45 2,5 C 2,3 C 0,0 km/h (0 Bft)
13.05.2013 04:05 2,8 C 98 % 1020,9 hPa 0,0 l/m 0,5 km/h (0 Bft) O-NO 67 2,5 C 2,3 C 1,9 km/h (1 Bft)
13.05.2013 04:10 2,8 C 98 % 1020,9 hPa 0,0 l/m 0,5 km/h (0 Bft) NO 45 2,5 C 2,3 C 0,0 km/h (0 Bft)
13.05.2013 04:15 2,8 C 98 % 1020,9 hPa 0,0 l/m 0,3 km/h (0 Bft) N 360 2,5 C 2,3 C 0,0 km/h (0 Bft)
13.05.2013 04:20 2,7 C 98 % 1020,9 hPa 0,0 l/m 0,5 km/h (0 Bft) NO 45 2,4 C 2,3 C 0,0 km/h (0 Bft)
13.05.2013 04:25 2,7 C 98 % 1020,9 hPa 0,0 l/m 0,3 km/h (0 Bft) NO 45 2,4 C 2,3 C 0,0 km/h (0 Bft)
13.05.2013 04:30 2,9 C 98 % 1020,9 hPa 0,0 l/m 0,3 km/h (0 Bft) NO 45 2,6 C 2,3 C 2,7 km/h (1 Bft)
13.05.2013 04:35 2,9 C 98 % 1020,9 hPa 0,0 l/m 0,5 km/h (0 Bft) NO 45 2,6 C 2,4 C 2,3 km/h (1 Bft)
13.05.2013 04:40 2,9 C 98 % 1020,9 hPa 0,0 l/m 0,6 km/h (0 Bft) NO 45 2,6 C 2,4 C 2,4 km/h (1 Bft)
13.05.2013 04:45 2,8 C 98 % 1020,6 hPa 0,0 l/m 0,5 km/h (0 Bft) NO 45 2,5 C 2,4 C 0,0 km/h (0 Bft)
13.05.2013 04:50 2,8 C 98 % 1020,6 hPa 0,0 l/m 0,5 km/h (0 Bft) NO 45 2,5 C 2,4 C 0,0 km/h (0 Bft)
13.05.2013 04:55 2,9 C 98 % 1020,6 hPa 0,0 l/m 0,5 km/h (0 Bft) NO 45 2,6 C 2,4 C 0,0 km/h (0 Bft)
13.05.2013 05:00 2,8 C 98 % 1020,6 hPa 0,0 l/m 0,8 km/h (0 Bft) O-NO 67 2,5 C 2,4 C 2,1 km/h (1 Bft)
13.05.2013 05:05 2,8 C 98 % 1020,4 hPa 0,0 l/m 0,8 km/h (0 Bft) SO 135 2,5 C 2,4 C 0,0 km/h (0 Bft)
13.05.2013 05:10 2,9 C 98 % 1020,4 hPa 0,0 l/m 1,0 km/h (0 Bft) NO 45 2,6 C 2,5 C 1,9 km/h (1 Bft)
13.05.2013 05:15 2,9 C 98 % 1020,4 hPa 0,0 l/m 0,6 km/h (0 Bft) O-NO 67 2,6 C 2,5 C 1,8 km/h (1 Bft)
13.05.2013 05:20 2,8 C 98 % 1020,4 hPa 0,0 l/m 0,3 km/h (0 Bft) N-NO 22 2,5 C 2,4 C 0,0 km/h (0 Bft)
13.05.2013 05:25 2,8 C 98 % 1020,3 hPa 0,0 l/m 0,5 km/h (0 Bft) N-NO 22 2,5 C 2,4 C 0,0 km/h (0 Bft)
13.05.2013 05:30 2,7 C 98 % 1020,3 hPa 0,0 l/m 0,5 km/h (0 Bft) NO 45 2,4 C 2,4 C 1,8 km/h (1 Bft)
13.05.2013 05:35 2,7 C 98 % 1020,3 hPa 0,0 l/m 1,1 km/h (1 Bft) NO 45 2,4 C 2,4 C 3,4 km/h (1 Bft)
13.05.2013 05:40 2,7 C 98 % 1020,3 hPa 0,0 l/m 1,1 km/h (1 Bft) NO 45 2,4 C 2,4 C 4,5 km/h (1 Bft)
13.05.2013 05:45 2,7 C 98 % 1020,7 hPa 0,0 l/m 1,0 km/h (0 Bft) NO 45 2,4 C 2,4 C 2,3 km/h (1 Bft)
13.05.2013 05:50 2,7 C 98 % 1020,7 hPa 0,0 l/m 0,5 km/h (0 Bft) N-NO 22 2,4 C 2,4 C 0,0 km/h (0 Bft)
13.05.2013 05:55 2,7 C 98 % 1020,7 hPa 0,0 l/m 0,2 km/h (0 Bft) N 360 2,4 C 2,4 C 0,0 km/h (0 Bft)
13.05.2013 06:00 2,8 C 98 % 1020,7 hPa 0,0 l/m 0,0 km/h (0 Bft) N 360 2,5 C 2,4 C 0,0 km/h (0 Bft)
13.05.2013 06:05 2,8 C 98 % 1021,2 hPa 0,0 l/m 0,0 km/h (0 Bft) NO 45 2,5 C 2,4 C 0,0 km/h (0 Bft)
13.05.2013 06:10 3,0 C 97 % 1021,2 hPa 0,0 l/m 0,3 km/h (0 Bft) NO 45 2,6 C 2,5 C 0,0 km/h (0 Bft)
13.05.2013 06:15 3,0 C 97 % 1021,2 hPa 0,0 l/m 1,0 km/h (0 Bft) O 90 2,6 C 2,6 C 0,0 km/h (0 Bft)
13.05.2013 06:20 3,1 C 97 % 1021,2 hPa 0,0 l/m 1,0 km/h (0 Bft) N-NO 22 2,7 C 2,8 C 2,3 km/h (1 Bft)
13.05.2013 06:25 3,1 C 97 % 1021,4 hPa 0,0 l/m 0,6 km/h (0 Bft) NO 45 2,7 C 2,8 C 0,0 km/h (0 Bft)
13.05.2013 06:30 3,2 C 97 % 1021,4 hPa 0,0 l/m 0,3 km/h (0 Bft) N 360 2,8 C 2,9 C 0,0 km/h (0 Bft)
13.05.2013 06:35 3,3 C 97 % 1021,4 hPa 0,0 l/m 0,2 km/h (0 Bft) NO 45 2,9 C 3,0 C 0,0 km/h (0 Bft)
13.05.2013 06:40 3,4 C 97 % 1021,4 hPa 0,0 l/m 0,2 km/h (0 Bft) S-SW 202 3,0 C 3,1 C 0,0 km/h (0 Bft)
13.05.2013 06:45 3,6 C 97 % 1021,6 hPa 0,0 l/m 0,2 km/h (0 Bft) NO 45 3,2 C 3,2 C 0,0 km/h (0 Bft)
13.05.2013 06:50 3,7 C 97 % 1021,6 hPa 0,0 l/m 0,2 km/h (0 Bft) N-NO 22 3,3 C 3,4 C 2,4 km/h (1 Bft)
13.05.2013 06:55 3,8 C 97 % 1021,6 hPa 0,0 l/m 0,2 km/h (0 Bft) N-NO 22 3,4 C 3,6 C 0,0 km/h (0 Bft)
13.05.2013 07:00 4,1 C 97 % 1021,6 hPa 0,0 l/m 0,0 km/h (0 Bft) N 360 3,7 C 3,9 C 0,0 km/h (0 Bft)
13.05.2013 07:05 4,2 C 97 % 1021,3 hPa 0,0 l/m 0,0 km/h (0 Bft) NO 45 3,8 C 4,2 C 0,0 km/h (0 Bft)
13.05.2013 07:10 4,2 C 97 % 1021,3 hPa 0,0 l/m 0,0 km/h (0 Bft) NO 45 3,8 C 4,4 C 0,0 km/h (0 Bft)
13.05.2013 07:15 4,3 C 97 % 1021,3 hPa 0,0 l/m 0,0 km/h (0 Bft) W-NW 292 3,9 C 4,5 C 0,0 km/h (0 Bft)
13.05.2013 07:20 4,3 C 97 % 1021,3 hPa 0,0 l/m 0,0 km/h (0 Bft) NO 45 3,9 C 4,7 C 0,0 km/h (0 Bft)
13.05.2013 07:25 4,4 C 97 % 1021,6 hPa 0,0 l/m 0,0 km/h (0 Bft) O-NO 67 4,0 C 4,7 C 0,0 km/h (0 Bft)
13.05.2013 07:30 4,7 C 97 % 1021,6 hPa 0,0 l/m 0,2 km/h (0 Bft) NO 45 4,3 C 5,0 C 0,0 km/h (0 Bft)
13.05.2013 07:35 4,7 C 97 % 1021,6 hPa 0,0 l/m 0,2 km/h (0 Bft) NO 45 4,3 C 5,0 C 0,0 km/h (0 Bft)
13.05.2013 07:40 4,9 C 97 % 1021,6 hPa 0,0 l/m 0,2 km/h (0 Bft) NO 45 4,5 C 5,3 C 0,0 km/h (0 Bft)
13.05.2013 07:45 5,0 C 97 % 1021,4 hPa 0,0 l/m 0,2 km/h (0 Bft) N 360 4,6 C 5,4 C 0,0 km/h (0 Bft)
13.05.2013 07:50 6,0 C 96 % 1021,4 hPa 0,0 l/m 0,2 km/h (0 Bft) S-SO 157 5,4 C 5,7 C 0,0 km/h (0 Bft)
13.05.2013 07:55 7,1 C 96 % 1021,4 hPa 0,0 l/m 0,2 km/h (0 Bft) S-SO 157 6,5 C 6,6 C 0,0 km/h (0 Bft)
13.05.2013 08:00 8,8 C 95 % 1021,4 hPa 0,0 l/m 0,6 km/h (0 Bft) NO 45 8,0 C 8,3 C 2,9 km/h (1 Bft)
13.05.2013 08:05 10,2 C 95 % 1021,2 hPa 0,0 l/m 1,3 km/h (1 Bft) S 180 9,4 C 9,3 C 6,0 km/h (2 Bft)
13.05.2013 08:10 11,2 C 93 % 1021,2 hPa 0,0 l/m 2,3 km/h (1 Bft) S-SO 157 10,1 C 10,9 C 2,9 km/h (1 Bft)
13.05.2013 08:15 10,7 C 92 % 1021,2 hPa 0,0 l/m 2,4 km/h (1 Bft) S-SO 157 9,5 C 11,5 C 4,7 km/h (1 Bft)
13.05.2013 08:20 9,0 C 91 % 1021,2 hPa 0,0 l/m 1,4 km/h (1 Bft) S 180 7,6 C 11,2 C 3,5 km/h (1 Bft)
13.05.2013 08:25 9,2 C 90 % 1021,5 hPa 0,0 l/m 1,4 km/h (1 Bft) W-NW 292 7,6 C 10,7 C 2,6 km/h (1 Bft)
13.05.2013 08:30 9,0 C 89 % 1021,5 hPa 0,0 l/m 1,8 km/h (1 Bft) O-SO 112 7,3 C 10,7 C 2,1 km/h (1 Bft)
13.05.2013 08:35 9,5 C 88 % 1021,5 hPa 0,0 l/m 1,4 km/h (1 Bft) S 180 7,6 C 10,8 C 2,6 km/h (1 Bft)
13.05.2013 08:40 9,2 C 86 % 1021,5 hPa 0,0 l/m 1,9 km/h (1 Bft) S-SO 157 7,0 C 10,9 C 7,1 km/h (2 Bft)
13.05.2013 08:45 9,7 C 85 % 1021,3 hPa 0,0 l/m 2,4 km/h (1 Bft) W 270 7,3 C 10,8 C 2,9 km/h (1 Bft)
13.05.2013 08:50 10,3 C 83 % 1021,3 hPa 0,0 l/m 2,7 km/h (1 Bft) S-SW 202 7,5 C 11,0 C 7,2 km/h (2 Bft)
13.05.2013 08:55 10,1 C 80 % 1021,3 hPa 0,0 l/m 3,5 km/h (1 Bft) S-SW 202 6,8 C 11,4 C 4,3 km/h (1 Bft)
13.05.2013 09:00 9,2 C 80 % 1021,3 hPa 0,0 l/m 4,0 km/h (1 Bft) S-SW 202 5,9 C 11,4 C 9,3 km/h (2 Bft)
13.05.2013 09:05 8,5 C 79 % 1021,4 hPa 0,0 l/m 4,0 km/h (1 Bft) S 180 5,1 C 10,9 C 4,5 km/h (1 Bft)
13.05.2013 09:10 8,5 C 82 % 1021,4 hPa 0,0 l/m 3,7 km/h (1 Bft) SO 135 5,6 C 10,6 C 3,1 km/h (1 Bft)
13.05.2013 09:15 8,5 C 81 % 1021,4 hPa 0,0 l/m 4,2 km/h (1 Bft) S 180 5,4 C 10,3 C 8,5 km/h (2 Bft)
13.05.2013 09:20 8,8 C 81 % 1021,4 hPa 0,0 l/m 5,6 km/h (1 Bft) SO 135 5,7 C 9,8 C 11,3 km/h (2 Bft)
13.05.2013 09:25 9,0 C 79 % 1021,1 hPa 0,0 l/m 6,0 km/h (2 Bft) S 180 5,6 C 9,7 C 8,5 km/h (2 Bft)
13.05.2013 09:30 8,9 C 78 % 1021,1 hPa 0,0 l/m 7,1 km/h (2 Bft) O 90 5,3 C 8,8 C 12,9 km/h (3 Bft)
13.05.2013 09:35 9,4 C 79 % 1021,1 hPa 0,0 l/m 7,1 km/h (2 Bft) S-SO 157 5,9 C 8,9 C 6,3 km/h (2 Bft)
13.05.2013 09:40 9,5 C 78 % 1021,1 hPa 0,0 l/m 6,3 km/h (2 Bft) S-SO 157 5,9 C 9,8 C 10,0 km/h (2 Bft)
13.05.2013 09:45 10,9 C 74 % 1021,5 hPa 0,0 l/m 5,8 km/h (2 Bft) S-SW 202 6,5 C 10,7 C 9,2 km/h (2 Bft)
13.05.2013 09:50 10,8 C 75 % 1021,5 hPa 0,0 l/m 5,8 km/h (2 Bft) SO 135 6,5 C 11,9 C 6,6 km/h (2 Bft)
13.05.2013 09:55 10,3 C 76 % 1021,5 hPa 0,0 l/m 6,0 km/h (2 Bft) S-SW 202 6,3 C 11,5 C 4,5 km/h (1 Bft)
13.05.2013 10:00 10,1 C 74 % 1021,5 hPa 0,0 l/m 6,0 km/h (2 Bft) S 180 5,7 C 11,4 C 7,6 km/h (2 Bft)
13.05.2013 10:05 10,0 C 74 % 1021,6 hPa 0,0 l/m 5,6 km/h (1 Bft) S 180 5,6 C 11,4 C 5,6 km/h (1 Bft)
13.05.2013 10:10 10,3 C 75 % 1021,6 hPa 0,0 l/m 5,6 km/h (1 Bft) S-SO 157 6,1 C 11,6 C 13,4 km/h (3 Bft)
13.05.2013 10:15 10,0 C 68 % 1021,6 hPa 0,0 l/m 6,3 km/h (2 Bft) S 180 4,4 C 11,4 C 10,1 km/h (2 Bft)
13.05.2013 10:20 9,6 C 71 % 1021,6 hPa 0,0 l/m 8,7 km/h (2 Bft) S 180 4,6 C 8,9 C 15,4 km/h (3 Bft)
13.05.2013 10:25 9,4 C 71 % 1021,4 hPa 0,0 l/m 8,4 km/h (2 Bft) S 180 4,4 C 8,8 C 9,7 km/h (2 Bft)
13.05.2013 10:30 9,8 C 71 % 1021,4 hPa 0,0 l/m 7,6 km/h (2 Bft) S 180 4,8 C 9,3 C 10,6 km/h (2 Bft)
13.05.2013 10:35 9,7 C 72 % 1021,4 hPa 0,0 l/m 7,4 km/h (2 Bft) O 90 4,9 C 9,6 C 5,8 km/h (2 Bft)
13.05.2013 10:40 10,3 C 71 % 1021,4 hPa 0,0 l/m 6,8 km/h (2 Bft) S 180 5,3 C 10,3 C 4,5 km/h (1 Bft)
13.05.2013 10:45 10,3 C 69 % 1021,3 hPa 0,0 l/m 6,6 km/h (2 Bft) S-SW 202 4,9 C 10,7 C 5,3 km/h (1 Bft)
13.05.2013 10:50 10,4 C 65 % 1021,3 hPa 0,0 l/m 7,1 km/h (2 Bft) S 180 4,1 C 10,8 C 9,8 km/h (2 Bft)
13.05.2013 10:55 10,4 C 66 % 1021,3 hPa 0,0 l/m 6,3 km/h (2 Bft) S 180 4,3 C 11,4 C 6,3 km/h (2 Bft)
13.05.2013 11:00 10,1 C 62 % 1021,3 hPa 0,0 l/m 6,8 km/h (2 Bft) S-SW 202 3,2 C 11,0 C 9,2 km/h (2 Bft)
13.05.2013 11:05 10,3 C 63 % 1021,2 hPa 0,0 l/m 7,2 km/h (2 Bft) S-SO 157 3,6 C 10,4 C 8,2 km/h (2 Bft)
13.05.2013 11:10 10,6 C 65 % 1021,2 hPa 0,0 l/m 6,3 km/h (2 Bft) S 180 4,3 C 11,7 C 8,0 km/h (2 Bft)
13.05.2013 11:15 10,9 C 65 % 1021,2 hPa 0,0 l/m 5,5 km/h (1 Bft) S 180 4,6 C 12,2 C 4,5 km/h (1 Bft)
13.05.2013 11:20 10,7 C 56 % 1021,2 hPa 0,0 l/m 6,8 km/h (2 Bft) S-SW 202 2,3 C 11,6 C 10,0 km/h (2 Bft)
13.05.2013 11:25 10,5 C 56 % 1021,3 hPa 0,0 l/m 8,5 km/h (2 Bft) SW 225 2,1 C 9,7 C 5,8 km/h (2 Bft)
13.05.2013 11:30 10,6 C 56 % 1021,3 hPa 0,0 l/m 9,2 km/h (2 Bft) SO 135 2,2 C 8,8 C 18,7 km/h (3 Bft)
13.05.2013 11:35 10,9 C 56 % 1021,3 hPa 0,0 l/m 7,7 km/h (2 Bft) S 180 2,5 C 10,2 C 5,8 km/h (2 Bft)
13.05.2013 11:40 10,9 C 55 % 1021,3 hPa 0,0 l/m 8,0 km/h (2 Bft) S-SO 157 2,2 C 10,2 C 9,3 km/h (2 Bft)
13.05.2013 11:45 11,1 C 56 % 1021,3 hPa 0,0 l/m 8,5 km/h (2 Bft) SW 225 2,7 C 9,6 C 8,7 km/h (2 Bft)
13.05.2013 11:50 11,3 C 54 % 1021,3 hPa 0,0 l/m 8,0 km/h (2 Bft) S 180 2,3 C 10,2 C 10,0 km/h (2 Bft)
13.05.2013 11:55 11,6 C 54 % 1021,3 hPa 0,0 l/m 7,7 km/h (2 Bft) W-SW 247 2,6 C 10,6 C 11,1 km/h (2 Bft)
13.05.2013 12:00 11,6 C 54 % 1021,3 hPa 0,0 l/m 9,2 km/h (2 Bft) S 180 2,6 C 9,9 C 20,6 km/h (4 Bft)
13.05.2013 12:05 11,2 C 53 % 1021,3 hPa 0,0 l/m 11,1 km/h (2 Bft) S 180 2,0 C 8,2 C 17,7 km/h (3 Bft)
13.05.2013 12:10 11,1 C 55 % 1021,3 hPa 0,0 l/m 13,2 km/h (3 Bft) W-SW 247 2,4 C 6,2 C 22,2 km/h (4 Bft)
13.05.2013 12:15 11,0 C 56 % 1021,3 hPa 0,0 l/m 11,9 km/h (2 Bft) S 180 2,6 C 6,9 C 11,1 km/h (2 Bft)
13.05.2013 12:20 11,4 C 57 % 1021,3 hPa 0,0 l/m 9,5 km/h (2 Bft) S-SO 157 3,2 C 8,8 C 10,3 km/h (2 Bft)
13.05.2013 12:25 11,6 C 56 % 1021,2 hPa 0,0 l/m 7,7 km/h (2 Bft) O-SO 112 3,1 C 10,2 C 4,8 km/h (1 Bft)
13.05.2013 12:30 11,6 C 57 % 1021,2 hPa 0,0 l/m 6,9 km/h (2 Bft) S-SW 202 3,4 C 11,3 C 6,1 km/h (2 Bft)
13.05.2013 12:35 11,7 C 57 % 1021,2 hPa 0,0 l/m 6,8 km/h (2 Bft) S-SW 202 3,5 C 11,3 C 11,3 km/h (2 Bft)
13.05.2013 12:40 11,2 C 56 % 1021,2 hPa 0,0 l/m 7,4 km/h (2 Bft) S-SW 202 2,8 C 10,4 C 7,7 km/h (2 Bft)
13.05.2013 12:45 11,2 C 56 % 1021,1 hPa 0,0 l/m 8,7 km/h (2 Bft) O-SO 112 2,8 C 9,2 C 10,8 km/h (2 Bft)
13.05.2013 12:50 11,5 C 57 % 1021,1 hPa 0,0 l/m 9,7 km/h (2 Bft) S-SO 157 3,3 C 8,5 C 17,4 km/h (3 Bft)
13.05.2013 12:55 11,3 C 56 % 1021,1 hPa 0,0 l/m 9,3 km/h (2 Bft) SO 135 2,8 C 9,0 C 7,9 km/h (2 Bft)
13.05.2013 13:00 11,6 C 57 % 1021,1 hPa 0,0 l/m 8,7 km/h (2 Bft) SO 135 3,4 C 9,4 C 13,4 km/h (3 Bft)
13.05.2013 13:05 11,7 C 56 % 1021,2 hPa 0,0 l/m 7,7 km/h (2 Bft) S 180 3,2 C 10,2 C 11,9 km/h (2 Bft)
13.05.2013 13:10 11,7 C 56 % 1021,2 hPa 0,0 l/m 7,9 km/h (2 Bft) S 180 3,2 C 10,1 C 8,5 km/h (2 Bft)
13.05.2013 13:15 12,0 C 57 % 1021,2 hPa 0,0 l/m 7,6 km/h (2 Bft) S-SW 202 3,8 C 10,6 C 10,1 km/h (2 Bft)
13.05.2013 13:20 12,1 C 56 % 1021,2 hPa 0,0 l/m 7,2 km/h (2 Bft) W-SW 247 3,6 C 11,2 C 8,2 km/h (2 Bft)
13.05.2013 13:25 12,1 C 58 % 1021,3 hPa 0,0 l/m 9,2 km/h (2 Bft) S-SW 202 4,1 C 9,6 C 10,3 km/h (2 Bft)
13.05.2013 13:30 11,6 C 59 % 1021,3 hPa 0,0 l/m 10,6 km/h (2 Bft) SO 135 3,9 C 7,6 C 22,5 km/h (4 Bft)
13.05.2013 13:35 11,7 C 59 % 1021,3 hPa 0,0 l/m 10,5 km/h (2 Bft) S-SW 202 4,0 C 8,0 C 13,8 km/h (3 Bft)
13.05.2013 13:40 11,8 C 60 % 1021,3 hPa 0,0 l/m 8,0 km/h (2 Bft) S 180 4,3 C 10,2 C 8,4 km/h (2 Bft)
13.05.2013 13:45 11,1 C 59 % 1021,4 hPa 0,0 l/m 9,3 km/h (2 Bft) S 180 3,4 C 9,0 C 13,5 km/h (3 Bft)
13.05.2013 13:50 11,1 C 62 % 1021,4 hPa 0,0 l/m 9,8 km/h (2 Bft) SO 135 4,1 C 7,9 C 13,7 km/h (3 Bft)
13.05.2013 13:55 11,0 C 64 % 1021,4 hPa 0,0 l/m 8,9 km/h (2 Bft) SO 135 4,5 C 8,2 C 9,2 km/h (2 Bft)
13.05.2013 14:00 10,8 C 66 % 1021,4 hPa 0,0 l/m 7,9 km/h (2 Bft) S 180 4,7 C 8,5 C 5,8 km/h (2 Bft)
13.05.2013 14:05 10,7 C 65 % 1021,2 hPa 0,0 l/m 7,4 km/h (2 Bft) S-SW 202 4,4 C 8,9 C 11,7 km/h (2 Bft)
13.05.2013 14:10 11,0 C 63 % 1021,2 hPa 0,0 l/m 8,0 km/h (2 Bft) S 180 4,2 C 8,5 C 12,6 km/h (3 Bft)
13.05.2013 14:15 11,4 C 65 % 1021,2 hPa 0,0 l/m 9,0 km/h (2 Bft) W 270 5,1 C 8,1 C 15,3 km/h (3 Bft)
13.05.2013 14:20 11,1 C 64 % 1021,2 hPa 0,0 l/m 8,9 km/h (2 Bft) S-SO 157 4,6 C 8,6 C 8,2 km/h (2 Bft)
13.05.2013 14:25 11,4 C 64 % 1021,0 hPa 0,0 l/m 8,5 km/h (2 Bft) S-SO 157 4,8 C 8,9 C 8,2 km/h (2 Bft)
13.05.2013 14:30 11,2 C 61 % 1021,0 hPa 0,0 l/m 7,7 km/h (2 Bft) S 180 4,0 C 10,0 C 19,8 km/h (3 Bft)
13.05.2013 14:35 10,9 C 62 % 1021,0 hPa 0,0 l/m 9,5 km/h (2 Bft) S-SO 157 3,9 C 8,1 C 15,4 km/h (3 Bft)
13.05.2013 14:40 11,1 C 63 % 1021,0 hPa 0,0 l/m 9,8 km/h (2 Bft) W-SW 247 4,3 C 7,4 C 11,1 km/h (2 Bft)
13.05.2013 14:45 11,1 C 63 % 1021,4 hPa 0,0 l/m 8,9 km/h (2 Bft) S 180 4,3 C 8,2 C 12,4 km/h (3 Bft)
13.05.2013 14:50 11,0 C 63 % 1021,4 hPa 0,0 l/m 8,4 km/h (2 Bft) S-SW 202 4,2 C 8,6 C 7,6 km/h (2 Bft)
13.05.2013 14:55 10,8 C 64 % 1021,4 hPa 0,0 l/m 9,2 km/h (2 Bft) S-SW 202 4,3 C 7,6 C 12,4 km/h (3 Bft)
13.05.2013 15:00 10,9 C 67 % 1021,4 hPa 0,0 l/m 8,0 km/h (2 Bft) S 180 5,0 C 8,2 C 7,6 km/h (2 Bft)
13.05.2013 15:05 10,9 C 67 % 1020,7 hPa 0,0 l/m 7,9 km/h (2 Bft) S 180 5,0 C 8,2 C 10,1 km/h (2 Bft)
13.05.2013 15:10 10,9 C 68 % 1020,7 hPa 0,0 l/m 6,9 km/h (2 Bft) S 180 5,2 C 9,1 C 7,1 km/h (2 Bft)
13.05.2013 15:15 10,8 C 68 % 1020,7 hPa 0,0 l/m 6,1 km/h (2 Bft) S-SW 202 5,1 C 9,7 C 7,2 km/h (2 Bft)
13.05.2013 15:20 10,5 C 69 % 1020,7 hPa 0,0 l/m 7,1 km/h (2 Bft) S-SO 157 5,1 C 8,7 C 6,4 km/h (2 Bft)
13.05.2013 15:25 10,4 C 69 % 1020,9 hPa 0,0 l/m 7,6 km/h (2 Bft) S 180 5,0 C 7,7 C 7,6 km/h (2 Bft)
13.05.2013 15:30 10,4 C 70 % 1020,9 hPa 0,0 l/m 6,1 km/h (2 Bft) SO 135 5,2 C 9,0 C 7,7 km/h (2 Bft)
13.05.2013 15:35 10,3 C 71 % 1020,9 hPa 0,0 l/m 5,0 km/h (1 Bft) S 180 5,3 C 9,1 C 7,2 km/h (2 Bft)
13.05.2013 15:40 10,3 C 73 % 1020,9 hPa 0,0 l/m 4,7 km/h (1 Bft) SO 135 5,7 C 9,0 C 0,0 km/h (0 Bft)
13.05.2013 15:45 10,3 C 74 % 1020,9 hPa 0,0 l/m 3,9 km/h (1 Bft) O-SO 112 5,9 C 9,4 C 3,2 km/h (1 Bft)
13.05.2013 15:50 10,7 C 74 % 1020,9 hPa 0,0 l/m 3,5 km/h (1 Bft) O-SO 112 6,3 C 9,6 C 3,9 km/h (1 Bft)
13.05.2013 15:55 11,2 C 73 % 1020,9 hPa 0,0 l/m 3,7 km/h (1 Bft) W-NW 292 6,5 C 10,1 C 5,0 km/h (1 Bft)
13.05.2013 16:00 11,2 C 72 % 1020,9 hPa 0,0 l/m 4,5 km/h (1 Bft) SO 135 6,3 C 10,6 C 4,3 km/h (1 Bft)
13.05.2013 16:05 11,4 C 72 % 1020,7 hPa 0,0 l/m 5,6 km/h (1 Bft) NO 45 6,5 C 10,3 C 9,3 km/h (2 Bft)
13.05.2013 16:10 11,6 C 72 % 1020,7 hPa 0,0 l/m 5,5 km/h (1 Bft) S-SO 157 6,7 C 10,6 C 7,9 km/h (2 Bft)
13.05.2013 16:15 11,7 C 71 % 1020,7 hPa 0,0 l/m 5,6 km/h (1 Bft) S 180 6,6 C 10,8 C 5,5 km/h (1 Bft)
13.05.2013 16:20 12,0 C 69 % 1020,7 hPa 0,0 l/m 4,7 km/h (1 Bft) S-SO 157 6,5 C 11,8 C 4,8 km/h (1 Bft)
13.05.2013 16:25 12,0 C 70 % 1020,6 hPa 0,0 l/m 4,0 km/h (1 Bft) S-SO 157 6,7 C 12,1 C 5,5 km/h (1 Bft)
13.05.2013 16:30 11,6 C 69 % 1020,6 hPa 0,0 l/m 4,8 km/h (1 Bft) S 180 6,1 C 12,1 C 7,1 km/h (2 Bft)
13.05.2013 16:35 11,3 C 70 % 1020,6 hPa 0,0 l/m 5,8 km/h (2 Bft) S 180 6,0 C 11,7 C 7,1 km/h (2 Bft)
13.05.2013 16:40 11,4 C 69 % 1020,6 hPa 0,0 l/m 6,1 km/h (2 Bft) S 180 5,9 C 11,4 C 6,9 km/h (2 Bft)
13.05.2013 16:45 11,3 C 68 % 1020,7 hPa 0,0 l/m 5,5 km/h (1 Bft) O-SO 112 5,6 C 11,6 C 3,4 km/h (1 Bft)
13.05.2013 16:50 11,3 C 68 % 1020,7 hPa 0,0 l/m 4,3 km/h (1 Bft) O-SO 112 5,6 C 11,8 C 6,6 km/h (2 Bft)
13.05.2013 16:55 11,3 C 69 % 1020,7 hPa 0,0 l/m 3,9 km/h (1 Bft) O 90 5,8 C 11,8 C 0,0 km/h (0 Bft)
13.05.2013 17:00 11,6 C 69 % 1020,7 hPa 0,0 l/m 2,7 km/h (1 Bft) W-SW 247 6,1 C 12,1 C 2,6 km/h (1 Bft)
13.05.2013 17:05 11,6 C 68 % 1020,4 hPa 0,0 l/m 2,9 km/h (1 Bft) SO 135 5,9 C 12,4 C 5,8 km/h (2 Bft)
13.05.2013 17:10 11,3 C 66 % 1020,4 hPa 0,0 l/m 6,1 km/h (2 Bft) S-SO 157 5,2 C 11,8 C 8,0 km/h (2 Bft)
13.05.2013 17:15 11,4 C 67 % 1020,4 hPa 0,0 l/m 6,8 km/h (2 Bft) S 180 5,5 C 11,4 C 5,8 km/h (2 Bft)
13.05.2013 17:20 11,4 C 65 % 1020,4 hPa 0,0 l/m 7,6 km/h (2 Bft) S-SO 157 5,1 C 10,8 C 9,8 km/h (2 Bft)
13.05.2013 17:25 11,5 C 66 % 1020,2 hPa 0,0 l/m 8,2 km/h (2 Bft) S 180 5,4 C 10,4 C 5,5 km/h (1 Bft)
13.05.2013 17:30 11,7 C 66 % 1020,2 hPa 0,0 l/m 7,9 km/h (2 Bft) S 180 5,6 C 10,9 C 10,9 km/h (2 Bft)
13.05.2013 17:35 11,6 C 64 % 1020,2 hPa 0,0 l/m 8,9 km/h (2 Bft) S 180 5,0 C 10,1 C 12,7 km/h (3 Bft)
13.05.2013 17:40 11,5 C 63 % 1020,2 hPa 0,0 l/m 10,0 km/h (2 Bft) SO 135 4,7 C 9,3 C 14,0 km/h (3 Bft)
13.05.2013 17:45 11,4 C 63 % 1020,2 hPa 0,0 l/m 9,7 km/h (2 Bft) SW 225 4,6 C 9,3 C 12,4 km/h (3 Bft)
13.05.2013 17:50 11,2 C 63 % 1020,2 hPa 0,0 l/m 10,5 km/h (2 Bft) SO 135 4,4 C 8,1 C 8,7 km/h (2 Bft)
13.05.2013 17:55 11,1 C 63 % 1020,2 hPa 0,0 l/m 9,5 km/h (2 Bft) W-SW 247 4,3 C 8,5 C 7,7 km/h (2 Bft)
13.05.2013 18:00 11,0 C 65 % 1020,2 hPa 0,0 l/m 7,2 km/h (2 Bft) W-SW 247 4,7 C 10,2 C 11,7 km/h (2 Bft)
13.05.2013 18:05 11,0 C 65 % 1020,0 hPa 0,0 l/m 6,4 km/h (2 Bft) S 180 4,7 C 10,8 C 7,9 km/h (2 Bft)
13.05.2013 18:10 11,0 C 65 % 1020,0 hPa 0,0 l/m 5,8 km/h (2 Bft) S-SW 202 4,7 C 11,0 C 8,5 km/h (2 Bft)
13.05.2013 18:15 11,0 C 66 % 1020,0 hPa 0,0 l/m 5,3 km/h (1 Bft) S 180 4,9 C 11,1 C 3,5 km/h (1 Bft)
13.05.2013 18:20 11,1 C 66 % 1020,0 hPa 0,0 l/m 4,8 km/h (1 Bft) S 180 5,0 C 11,2 C 5,1 km/h (1 Bft)
13.05.2013 18:25 11,1 C 66 % 1019,8 hPa 0,0 l/m 3,5 km/h (1 Bft) S-SO 157 5,0 C 11,3 C 3,9 km/h (1 Bft)
13.05.2013 18:30 11,1 C 66 % 1019,8 hPa 0,0 l/m 3,1 km/h (1 Bft) S 180 5,0 C 11,4 C 4,5 km/h (1 Bft)
13.05.2013 18:35 11,0 C 66 % 1019,8 hPa 0,0 l/m 3,9 km/h (1 Bft) S-SW 202 4,9 C 11,3 C 6,1 km/h (2 Bft)
13.05.2013 18:40 10,9 C 67 % 1019,8 hPa 0,0 l/m 4,7 km/h (1 Bft) S 180 5,0 C 11,3 C 7,2 km/h (2 Bft)
13.05.2013 18:45 10,9 C 68 % 1019,8 hPa 0,0 l/m 4,2 km/h (1 Bft) O-SO 112 5,2 C 11,3 C 3,9 km/h (1 Bft)
13.05.2013 18:50 10,9 C 68 % 1019,8 hPa 0,0 l/m 2,3 km/h (1 Bft) S 180 5,2 C 11,4 C 0,0 km/h (0 Bft)
13.05.2013 18:55 11,0 C 68 % 1019,8 hPa 0,0 l/m 1,3 km/h (1 Bft) SO 135 5,3 C 11,7 C 5,3 km/h (1 Bft)
13.05.2013 19:00 11,1 C 67 % 1019,8 hPa 0,0 l/m 1,3 km/h (1 Bft) S 180 5,2 C 12,1 C 0,0 km/h (0 Bft)
13.05.2013 19:05 11,3 C 68 % 1019,4 hPa 0,0 l/m 1,1 km/h (1 Bft) O 90 5,6 C 12,6 C 0,0 km/h (0 Bft)
13.05.2013 19:10 11,5 C 69 % 1019,4 hPa 0,0 l/m 0,2 km/h (0 Bft) O 90 6,0 C 13,4 C 0,0 km/h (0 Bft)
13.05.2013 19:15 11,7 C 68 % 1019,4 hPa 0,0 l/m 0,5 km/h (0 Bft) S 180 6,0 C 14,1 C 6,6 km/h (2 Bft)
13.05.2013 19:20 11,6 C 66 % 1019,4 hPa 0,0 l/m 2,1 km/h (1 Bft) O-SO 112 5,5 C 14,0 C 4,7 km/h (1 Bft)
13.05.2013 19:25 11,5 C 66 % 1019,4 hPa 0,0 l/m 3,2 km/h (1 Bft) S 180 5,4 C 13,5 C 6,4 km/h (2 Bft)
13.05.2013 19:30 11,2 C 66 % 1019,4 hPa 0,0 l/m 2,6 km/h (1 Bft) SO 135 5,1 C 12,8 C 2,4 km/h (1 Bft)
13.05.2013 19:35 11,1 C 67 % 1019,4 hPa 0,0 l/m 1,6 km/h (1 Bft) O-NO 67 5,2 C 12,5 C 0,0 km/h (0 Bft)
13.05.2013 19:40 10,7 C 68 % 1019,4 hPa 0,0 l/m 0,8 km/h (0 Bft) NO 45 5,0 C 12,0 C 0,0 km/h (0 Bft)
13.05.2013 19:45 10,5 C 68 % 1019,4 hPa 0,0 l/m 0,5 km/h (0 Bft) O 90 4,8 C 11,6 C 0,0 km/h (0 Bft)
13.05.2013 19:50 10,4 C 69 % 1019,4 hPa 0,0 l/m 0,3 km/h (0 Bft) O 90 5,0 C 11,3 C 0,0 km/h (0 Bft)
13.05.2013 19:55 10,3 C 70 % 1019,4 hPa 0,0 l/m 0,3 km/h (0 Bft) O-NO 67 5,1 C 11,1 C 1,8 km/h (1 Bft)
13.05.2013 20:00 10,2 C 70 % 1019,4 hPa 0,0 l/m 0,6 km/h (0 Bft) O-SO 112 5,0 C 10,9 C 0,0 km/h (0 Bft)
13.05.2013 20:05 10,2 C 71 % 1019,3 hPa 0,0 l/m 0,8 km/h (0 Bft) O 90 5,2 C 10,6 C 0,0 km/h (0 Bft)
13.05.2013 20:10 10,0 C 71 % 1019,3 hPa 0,0 l/m 0,2 km/h (0 Bft) O-SO 112 5,0 C 10,4 C 0,0 km/h (0 Bft)
13.05.2013 20:15 9,9 C 72 % 1019,3 hPa 0,0 l/m 0,6 km/h (0 Bft) NO 45 5,1 C 10,2 C 2,4 km/h (1 Bft)
13.05.2013 20:20 9,7 C 72 % 1019,3 hPa 0,0 l/m 1,9 km/h (1 Bft) NO 45 4,9 C 10,0 C 2,3 km/h (1 Bft)
13.05.2013 20:25 9,6 C 73 % 1019,2 hPa 0,0 l/m 2,4 km/h (1 Bft) NO 45 5,0 C 9,8 C 2,6 km/h (1 Bft)
13.05.2013 20:30 9,3 C 74 % 1019,2 hPa 0,0 l/m 2,9 km/h (1 Bft) NO 45 4,9 C 9,4 C 3,9 km/h (1 Bft)
13.05.2013 20:35 9,0 C 75 % 1019,2 hPa 0,0 l/m 3,9 km/h (1 Bft) O 90 4,8 C 9,2 C 4,5 km/h (1 Bft)
13.05.2013 20:40 8,6 C 77 % 1019,2 hPa 0,0 l/m 4,3 km/h (1 Bft) O 90 4,8 C 8,7 C 4,5 km/h (1 Bft)
13.05.2013 20:45 8,3 C 78 % 1019,0 hPa 0,0 l/m 4,0 km/h (1 Bft) O-NO 67 4,7 C 8,4 C 3,9 km/h (1 Bft)
13.05.2013 20:50 7,9 C 79 % 1019,0 hPa 0,0 l/m 2,6 km/h (1 Bft) O-SO 112 4,5 C 8,1 C 0,0 km/h (0 Bft)
13.05.2013 20:55 7,8 C 79 % 1019,0 hPa 0,0 l/m 1,4 km/h (1 Bft) O 90 4,4 C 7,8 C 1,6 km/h (1 Bft)
13.05.2013 21:00 8,0 C 80 % 1019,0 hPa 0,0 l/m 1,1 km/h (1 Bft) NO 45 4,8 C 7,7 C 1,9 km/h (1 Bft)
13.05.2013 21:05 8,1 C 80 % 1018,6 hPa 0,0 l/m 1,3 km/h (1 Bft) O 90 4,9 C 7,7 C 1,6 km/h (1 Bft)
13.05.2013 21:10 8,2 C 80 % 1018,6 hPa 0,0 l/m 1,8 km/h (1 Bft) NO 45 5,0 C 7,8 C 2,4 km/h (1 Bft)
13.05.2013 21:15 8,3 C 80 % 1018,6 hPa 0,0 l/m 2,6 km/h (1 Bft) NO 45 5,1 C 7,8 C 3,9 km/h (1 Bft)
13.05.2013 21:20 8,2 C 80 % 1018,6 hPa 0,0 l/m 2,1 km/h (1 Bft) O-SO 112 5,0 C 8,0 C 1,9 km/h (1 Bft)
13.05.2013 21:25 8,0 C 81 % 1018,9 hPa 0,0 l/m 1,1 km/h (1 Bft) O-NO 67 4,9 C 8,0 C 0,0 km/h (0 Bft)
13.05.2013 21:30 8,0 C 82 % 1018,9 hPa 0,0 l/m 1,4 km/h (1 Bft) O-NO 67 5,1 C 7,9 C 3,5 km/h (1 Bft)
13.05.2013 21:35 8,0 C 82 % 1018,9 hPa 0,0 l/m 1,8 km/h (1 Bft) NO 45 5,1 C 7,9 C 2,3 km/h (1 Bft)
13.05.2013 21:40 7,9 C 83 % 1018,9 hPa 0,0 l/m 2,3 km/h (1 Bft) NO 45 5,2 C 7,8 C 3,9 km/h (1 Bft)
13.05.2013 21:45 7,8 C 83 % 1018,8 hPa 0,0 l/m 1,9 km/h (1 Bft) O 90 5,1 C 7,8 C 0,0 km/h (0 Bft)
13.05.2013 21:50 7,8 C 83 % 1018,8 hPa 0,0 l/m 1,9 km/h (1 Bft) O 90 5,1 C 7,7 C 3,4 km/h (1 Bft)
13.05.2013 21:55 7,9 C 83 % 1018,8 hPa 0,0 l/m 2,6 km/h (1 Bft) O-NO 67 5,2 C 7,7 C 3,5 km/h (1 Bft)
13.05.2013 22:00 7,8 C 83 % 1018,8 hPa 0,0 l/m 3,4 km/h (1 Bft) O-NO 67 5,1 C 7,8 C 3,4 km/h (1 Bft)
13.05.2013 22:05 7,8 C 84 % 1019,1 hPa 0,0 l/m 3,4 km/h (1 Bft) O 90 5,3 C 7,7 C 3,9 km/h (1 Bft)
13.05.2013 22:10 7,6 C 84 % 1019,1 hPa 0,0 l/m 3,4 km/h (1 Bft) O-NO 67 5,1 C 7,5 C 3,7 km/h (1 Bft)
13.05.2013 22:15 7,5 C 84 % 1019,1 hPa 0,0 l/m 3,5 km/h (1 Bft) O 90 5,0 C 7,5 C 3,9 km/h (1 Bft)
13.05.2013 22:20 7,3 C 84 % 1019,1 hPa 0,0 l/m 2,9 km/h (1 Bft) O 90 4,8 C 7,2 C 2,6 km/h (1 Bft)
13.05.2013 22:25 7,2 C 84 % 1018,6 hPa 0,0 l/m 2,1 km/h (1 Bft) O 90 4,7 C 7,1 C 2,4 km/h (1 Bft)
13.05.2013 22:30 7,0 C 85 % 1018,6 hPa 0,0 l/m 1,1 km/h (1 Bft) O-SO 112 4,7 C 6,9 C 2,4 km/h (1 Bft)
13.05.2013 22:35 7,1 C 85 % 1018,6 hPa 0,0 l/m 1,4 km/h (1 Bft) NO 45 4,8 C 6,9 C 2,6 km/h (1 Bft)
13.05.2013 22:40 7,1 C 85 % 1018,6 hPa 0,0 l/m 1,9 km/h (1 Bft) O-NO 67 4,8 C 6,9 C 2,1 km/h (1 Bft)
13.05.2013 22:45 7,0 C 85 % 1018,9 hPa 0,0 l/m 1,6 km/h (1 Bft) O-SO 112 4,7 C 6,8 C 1,6 km/h (1 Bft)
13.05.2013 22:50 6,9 C 85 % 1018,9 hPa 0,0 l/m 1,4 km/h (1 Bft) O 90 4,6 C 6,7 C 2,1 km/h (1 Bft)
13.05.2013 22:55 6,8 C 86 % 1018,9 hPa 0,0 l/m 1,1 km/h (1 Bft) NO 45 4,6 C 6,6 C 0,0 km/h (0 Bft)
13.05.2013 23:00 6,5 C 85 % 1018,9 hPa 0,0 l/m 0,6 km/h (0 Bft) S 180 4,2 C 6,5 C 2,7 km/h (1 Bft)
13.05.2013 23:05 6,5 C 85 % 1018,4 hPa 0,0 l/m 0,5 km/h (0 Bft) S 180 4,2 C 6,5 C 2,6 km/h (1 Bft)
13.05.2013 23:10 6,5 C 86 % 1018,4 hPa 0,0 l/m 0,6 km/h (0 Bft) S-SW 202 4,3 C 6,4 C 0,0 km/h (0 Bft)
13.05.2013 23:15 6,5 C 86 % 1018,4 hPa 0,0 l/m 0,5 km/h (0 Bft) O-NO 67 4,3 C 6,4 C 0,0 km/h (0 Bft)
13.05.2013 23:20 6,6 C 86 % 1018,4 hPa 0,0 l/m 0,2 km/h (0 Bft) O-SO 112 4,4 C 6,4 C 1,9 km/h (1 Bft)
13.05.2013 23:25 6,8 C 86 % 1018,5 hPa 0,0 l/m 0,5 km/h (0 Bft) SW 225 4,6 C 6,5 C 0,0 km/h (0 Bft)
13.05.2013 23:30 6,8 C 86 % 1018,5 hPa 0,0 l/m 1,0 km/h (0 Bft) NO 45 4,6 C 6,6 C 6,3 km/h (2 Bft)
13.05.2013 23:35 6,9 C 87 % 1018,5 hPa 0,0 l/m 0,8 km/h (0 Bft) O-SO 112 4,9 C 6,8 C 0,0 km/h (0 Bft)
13.05.2013 23:40 7,0 C 86 % 1018,5 hPa 0,0 l/m 0,6 km/h (0 Bft) O 90 4,8 C 6,9 C 0,0 km/h (0 Bft)
13.05.2013 23:45 7,1 C 86 % 1018,3 hPa 0,0 l/m 0,2 km/h (0 Bft) O-SO 112 4,9 C 6,9 C 0,0 km/h (0 Bft)
13.05.2013 23:50 7,1 C 86 % 1018,3 hPa 0,0 l/m 0,0 km/h (0 Bft) O-SO 112 4,9 C 6,9 C 0,0 km/h (0 Bft)
13.05.2013 23:55 7,1 C 86 % 1018,3 hPa 0,0 l/m 0,0 km/h (0 Bft) O-SO 112 4,9 C 7,0 C 0,0 km/h (0 Bft)
_ Min-Zeit 02:00 12:05 23:55 - 23:55 - - 02:00 02:05 23:55
Minimum _ 2,1 C 53 % 1018,3 hPa - 0,0 km/h (0 Bft) - - 1,7 C 1,5 C 0,0 km/h (0 Bft)
_ Max-Zeit 13:25 06:05 01:20 23:55 12:10 - - 08:10 19:15 13:30
Maximum _ 12,1 C 98 % 1021,8 hPa 0,0 l/m 13,2 km/h
W-SW (3 Bft)
- - 10,1 C 14,1 C 22,5 km/h
SO (4 Bft)
Durchschnitt _ 7,7 C 80 % 1020,6 hPa #0,0 l/m 3,4 km/h (1 Bft) S - 4,2 C 7,3 C 4,5 km/h (1 Bft)